Weather History for Poplar Bluff, MO

Change the Weather History Date:

Sunday, January 13, 2013

  Actual Average Record
Temperature  
Mean Temperature 34 °F -  
Max Temperature 41 °F 38 °F 70 °F (1928)
Min Temperature 26 °F 20 °F -18 °F (1918)
Degree Days  
Heating Degree Days 31    
Moisture  
Dew Point 30 °F    
Average Humidity 82    
Maximum Humidity 93    
Minimum Humidity 69    
Precipitation  
Precipitation 0.64 in - - ()
Sea Level Pressure  
Sea Level Pressure 30.04 in    
Wind  
Wind Speed 15 mph (NNW)    
Max Wind Speed 23 mph    
Max Gust Speed 30 mph    
Visibility 8 miles    
Events Rain , Thunderstorm    
Averages and records for this station are not official NWS values.
T = Trace of Precipitation, MM = Missing Value Source: NWS Daily Summary

Daily Weather History Graph

Daily Weather History Graph

Search for Another Location

Airport:

Trip Planner

Search our weather history database for the weather conditions in past years. The results will help you decide how hot, cold, wet, or windy it might be!

Date:

Astronomy

Jan. 13, 2013 Rise Set
Actual Time 7:13 AM CST 5:07 PM CST
Civil Twilight 6:45 AM CST 5:35 PM CST
Nautical Twilight 6:13 AM CST 6:07 PM CST
Astronomical Twilight 5:42 AM CST 6:38 PM CST
Moon 8:16 AM CST (1/13) 7:40 PM CST (1/13)
Length of Visible Light 10h 50m
Length of Day
9h 53m
Waxing Crescent, 5% of the Moon is Illuminated
Jan 13
Waxing Crescent
Jan 18
First Quarter
Jan 26
Full
Feb 3
Last Quarter
Feb 10
New

Hourly Weather History & Observations

Time (CST) Temp. Windchill Dew Point Humidity Pressure Visibility Wind Dir Wind Speed Gust Speed Precip Events Conditions
12:02 AM 41.0 °F 32.2 °F 37.4 °F 87% 29.84 in 5.0 mi North 18.4 mph - 0.03 in Rain Rain
12:12 AM 41.0 °F 31.6 °F 35.6 °F 81% 29.85 in 6.0 mi North 20.7 mph 26.5 mph 0.05 in Rain Rain
12:26 AM 39.2 °F 28.7 °F 35.6 °F 87% 29.83 in 3.0 mi North 23.0 mph 29.9 mph 0.12 in Rain Heavy Rain
12:34 AM 39.2 °F 29.8 °F 35.6 °F 87% 29.83 in 4.0 mi North 18.4 mph - 0.15 in Rain Heavy Rain
12:53 AM 39.0 °F 29.0 °F 36.0 °F 89% 29.84 in 8.0 mi North 20.7 mph 26.5 mph 0.21 in Rain Light Rain
1:09 AM 37.4 °F 27.5 °F 35.6 °F 93% 29.86 in 4.0 mi North 18.4 mph 26.5 mph 0.06 in Rain , Thunderstorm Heavy Rain
1:16 AM 37.4 °F 28.5 °F 35.6 °F 93% 29.87 in 4.0 mi North 15.0 mph 24.2 mph 0.09 in Rain , Thunderstorm Heavy Rain
1:29 AM 37.4 °F 28.2 °F 35.6 °F 93% 29.88 in 5.0 mi North 16.1 mph 21.9 mph 0.16 in Rain Heavy Rain
1:46 AM 37.4 °F 26.9 °F 35.6 °F 93% 29.85 in 4.0 mi North 20.7 mph 27.6 mph 0.25 in Rain Heavy Rain
1:53 AM 37.9 °F 27.9 °F 34.0 °F 86% 29.86 in 5.0 mi North 19.6 mph 27.6 mph 0.27 in Rain Rain
2:53 AM 39.0 °F 32.3 °F 35.1 °F 86% 29.92 in 10.0 mi North 10.4 mph 19.6 mph 0.08 in Rain Light Rain
3:44 AM 39.2 °F 31.6 °F 35.6 °F 87% 29.88 in 10.0 mi NNE 12.7 mph - 0.00 in   Overcast
3:53 AM 39.9 °F 31.8 °F 35.1 °F 83% 29.89 in 10.0 mi North 15.0 mph - 0.00 in   Overcast
4:53 AM 39.0 °F 32.3 °F 34.0 °F 82% 29.96 in 10.0 mi NNW 10.4 mph - 0.00 in Rain Light Rain
5:48 AM 39.2 °F 31.6 °F 33.8 °F 81% 29.96 in 10.0 mi North 12.7 mph - 0.00 in Rain Light Rain
5:53 AM 39.0 °F 32.8 °F 34.0 °F 82% 29.97 in 10.0 mi North 9.2 mph - 0.00 in   Overcast
6:53 AM 37.9 °F 29.6 °F 33.1 °F 83% 30.01 in 10.0 mi NNW 13.8 mph 21.9 mph N/A   Overcast
7:53 AM 37.0 °F 28.9 °F 33.1 °F 86% 30.00 in 10.0 mi North 12.7 mph - 0.00 in   Overcast
8:27 AM 37.4 °F 29.8 °F 33.8 °F 87% 29.98 in 10.0 mi NNW 11.5 mph - N/A   Overcast
8:53 AM 37.0 °F 29.8 °F 33.1 °F 86% 29.99 in 10.0 mi NNE 10.4 mph - N/A   Overcast
9:17 AM 37.4 °F 29.3 °F 32.0 °F 81% 30.00 in 10.0 mi North 12.7 mph - N/A   Overcast
9:38 AM 35.6 °F 26.6 °F 32.0 °F 87% 30.05 in 10.0 mi NW 13.8 mph - N/A   Overcast
9:53 AM 36.0 °F 27.1 °F 30.9 °F 82% 30.05 in 5.0 mi NNW 13.8 mph - 0.00 in Rain Light Rain
10:14 AM 35.6 °F 27.1 °F 30.2 °F 81% 30.06 in 5.0 mi NNW 12.7 mph - 0.03 in Rain Rain
10:50 AM 35.6 °F 25.2 °F 30.2 °F 81% 30.00 in 7.0 mi NNW 18.4 mph - 0.06 in Rain Light Rain
10:53 AM 35.1 °F 25.5 °F 30.9 °F 85% 30.01 in 7.0 mi North 15.0 mph 23.0 mph 0.06 in Rain Light Rain
11:09 AM 35.6 °F 28.6 °F 30.2 °F 81% 30.03 in 10.0 mi NNW 9.2 mph - 0.01 in Rain Light Rain
11:35 AM 35.6 °F 27.5 °F 30.2 °F 81% 30.02 in 9.0 mi NNW 11.5 mph - 0.02 in Rain Light Rain
11:53 AM 35.1 °F 25.5 °F 30.0 °F 82% 30.04 in 10.0 mi NNW 15.0 mph - 0.02 in Rain Light Rain
12:05 PM 33.8 °F 23.9 °F 30.2 °F 87% 30.01 in 10.0 mi NNW 15.0 mph - 0.00 in   Overcast
12:53 PM 34.0 °F 24.6 °F 28.9 °F 82% 30.05 in 10.0 mi NW 13.8 mph 21.9 mph 0.00 in   Overcast
1:53 PM 33.1 °F 26.1 °F 28.0 °F 82% 30.12 in 10.0 mi NNW 8.1 mph - N/A   Overcast
2:22 PM 33.8 °F 25.3 °F 26.6 °F 75% 30.10 in 10.0 mi NNW 11.5 mph - N/A   Overcast
2:36 PM 33.8 °F 23.9 °F 26.6 °F 75% 30.11 in 10.0 mi NNW 15.0 mph - N/A   Overcast
2:53 PM 34.0 °F 25.0 °F 27.0 °F 75% 30.14 in 10.0 mi NNW 12.7 mph - N/A   Overcast
3:21 PM 33.8 °F 25.3 °F 28.4 °F 81% 30.14 in 10.0 mi NNW 11.5 mph - N/A   Overcast
3:53 PM 34.0 °F 24.6 °F 27.0 °F 75% 30.18 in 10.0 mi NW 13.8 mph - N/A   Overcast
4:53 PM 34.0 °F 25.0 °F 27.0 °F 75% 30.21 in 10.0 mi NNW 12.7 mph - N/A   Overcast
5:25 PM 33.8 °F 27.0 °F 26.6 °F 75% 30.21 in 10.0 mi North 8.1 mph - N/A   Scattered Clouds
5:53 PM 33.1 °F 25.5 °F 25.0 °F 72% 30.24 in 10.0 mi North 9.2 mph - N/A   Partly Cloudy
6:53 PM 30.9 °F 21.2 °F 21.9 °F 69% 30.25 in 10.0 mi NNW 12.7 mph - N/A   Clear
7:53 PM 28.9 °F 20.4 °F 21.0 °F 72% 30.28 in 10.0 mi NNW 9.2 mph - N/A   Clear
8:53 PM 28.0 °F 18.6 °F 21.0 °F 75% 30.30 in 10.0 mi NNW 10.4 mph - N/A   Clear
9:53 PM 27.0 °F 19.5 °F 19.9 °F 75% 30.33 in 10.0 mi NNW 6.9 mph - N/A   Clear
10:53 PM 27.0 °F 18.0 °F 19.0 °F 72% 30.35 in 10.0 mi North 9.2 mph - N/A   Clear
11:53 PM 26.1 °F 17.6 °F 18.0 °F 71% 30.37 in 10.0 mi North 8.1 mph - N/A   Clear